Theta_e
294 299 302 308 321 321 322 321 328 330 328 327 321 320 318 316 316 320 321 319 319 318 315 311 308 305 305 304 298 296 295 294 296 293 292 291 290 288 286 286 285 284 284
292 295 298 303 319 322 321 320 323 329 327 325 321 320 317 311 310 309 309 312 312 311 309 307 304 303 302 299 297 295 292 294 295 292 291 286 288 288 287 287 285 284 284
292 292 294 298 305 319 319 320 321 325 325 323 319 309 306 304 302 301 301 301 303 302 304 304 302 302 302 298 296 295 293 292 292 293 293 287 286 286 288 286 285 283 283
295 296 297 298 300 317 320 321 321 322 324 322 314 311 313 309 304 300 297 296 297 297 298 298 299 298 299 297 297 296 295 294 289 291 291 291 291 286 282 286 284 284 282
293 294 295 297 299 304 320 320 320 322 321 319 316 314 315 311 300 297 294 293 294 295 295 295 295 294 294 294 294 293 293 293 291 290 290 289 289 289 285 282 282 285 283
292 293 295 296 296 299 314 319 320 321 320 316 316 316 314 300 297 294 293 292 292 292 292 292 292 292 292 291 291 290 290 289 289 289 289 288 287 285 286 282 282 282 282
291 291 291 293 294 295 300 315 318 319 321 315 314 316 308 303 300 296 293 291 290 290 290 290 290 290 290 290 290 289 288 288 287 287 286 286 285 285 284 282 280 280 281
290 291 291 292 293 294 297 300 318 319 320 316 314 315 307 304 301 298 294 292 290 289 290 289 290 289 289 289 288 287 287 287 286 284 283 282 282 282 282 281 279 277 278
289 290 291 291 292 293 295 298 301 319 318 315 314 308 306 302 298 295 293 290 289 289 289 289 288 288 288 288 288 286 285 284 283 282 282 280 280 281 280 280 279 278 275
288 289 290 291 291 292 294 296 300 312 314 313 310 305 302 298 294 292 290 289 288 288 287 287 287 286 286 286 286 284 283 281 281 281 280 280 280 279 279 279 278 278 276
286 287 289 290 292 294 294 295 297 305 312 309 303 298 295 293 291 289 288 287 287 287 286 286 286 285 284 284 282 282 282 280 280 280 279 278 278 277 277 278 277 277 276
287 287 289 291 293 295 298 300 298 307 303 298 294 292 290 289 287 286 285 286 285 286 286 285 285 284 283 282 281 281 280 279 279 279 278 277 278 276 276 276 276 276 276
285 287 288 290 290 291 293 302 301 296 294 291 289 287 286 285 285 285 285 285 285 285 285 284 282 281 281 281 281 280 279 279 278 278 277 277 277 276 276 275 275 275 276
284 286 287 287 287 287 288 291 291 290 289 288 287 285 285 285 285 285 285 284 284 283 283 282 281 281 281 280 280 279 278 278 278 278 277 276 276 276 275 275 275 276 275
282 284 285 285 285 285 285 286 286 287 287 286 285 285 285 285 285 284 284 283 283 282 281 281 280 280 280 279 278 278 278 277 277 277 277 277 278 279 278 276 276 276 275
281 283 284 284 284 284 284 285 285 285 286 285 284 285 285 284 283 283 282 281 280 280 280 280 279 279 280 282 282 279 277 277 277 276 277 277 277 278 278 279 279 278 275
280 281 282 283 283 284 285 284 284 285 285 284 284 283 283 281 281 280 280 279 279 279 279 279 280 280 280 283 282 280 278 277 276 276 276 276 276 276 276 277 277 276 276
280 281 282 282 283 283 283 284 284 284 283 282 282 282 281 280 280 279 279 279 279 279 279 279 279 279 280 283 282 280 277 277 276 276 276 275 275 276 276 275 274 273 272
281 281 282 282 283 283 283 282 282 282 281 280 280 281 280 279 279 278 278 279 279 279 279 279 279 279 280 283 282 279 277 276 275 276 276 275 275 278 278 274 272 271 271
281 281 281 281 282 281 282 281 280 280 279 279 280 280 280 280 279 279 278 279 279 278 278 278 278 278 278 282 281 279 277 275 275 276 276 277 276 277 277 273 270 268 269
281 281 280 279 280 281 280 278 278 277 279 279 279 279 279 278 278 277 277 277 276 276 276 276 276 276 277 278 280 280 277 276 275 274 273 273 276 276 276 275 269 270 268
280 280 279 278 279 281 280 277 276 278 278 278 277 277 277 277 277 276 276 276 275 274 274 273 273 274 276 280 281 280 279 277 274 272 272 272 275 275 274 272 273 273 267
280 279 278 278 278 279 279 276 276 277 277 276 276 276 276 277 276 275 274 274 274 273 272 273 272 272 273 274 279 278 277 275 272 272 272 273 272 271 268 270 270 265 258
279 279 277 276 276 277 277 277 276 276 275 274 274 275 274 274 275 275 275 274 272 271 272 272 271 270 270 270 270 271 270 273 271 269 265 269 268 267 267 262 262 261 258
279 278 276 276 275 276 276 276 276 276 275 274 274 274 274 273 273 273 272 272 272 273 271 269 270 268 266 270 272 270 267 264 268 256 256 256 257 257 258 258 256 256 255
278 277 277 277 275 274 274 274 274 275 274 273 273 273 273 274 274 274 274 279 278 278 277 276 272 270 275 277 275 274 273 273 271 254 252 253 255 255 255 255 257 256 255
Wind_Speed
10 12 12 11 11 13 17 17 18 18 13 11 11 10 10 5 4 5 8 10 10 9 9 6 7 7 8 9 10 9 11 5 9 8 8 7 7 7 6 5 5 6 6
8 9 9 9 8 14 17 18 20 19 16 12 11 7 7 2 3 3 5 5 8 8 9 10 8 8 9 9 10 12 6 4 4 4 4 4 3 5 5 3 4 5 4
13 8 8 10 9 13 16 19 20 21 19 17 9 5 6 5 3 3 4 3 6 6 7 8 8 8 7 9 8 7 7 8 2 6 2 4 3 5 3 4 4 3 2
11 11 11 11 11 12 14 18 20 20 20 18 14 17 14 10 4 3 5 6 7 7 7 8 7 7 5 7 6 5 4 10 7 4 7 7 5 3 3 0 1 2 2
11 13 11 12 13 13 11 14 17 19 19 18 19 15 14 7 7 8 10 7 8 9 8 9 10 8 6 7 8 8 9 7 6 4 3 5 5 5 3 3 3 1 2
12 12 11 12 11 12 12 11 14 16 18 17 19 20 17 14 11 10 9 7 6 7 9 11 10 11 6 10 9 10 11 10 8 6 6 3 2 2 2 2 3 4 2
13 13 14 15 15 13 14 9 15 17 17 19 17 18 17 19 20 17 12 13 9 7 9 11 12 10 9 11 12 13 11 8 8 7 6 4 2 1 1 1 2 3 2
12 14 13 13 14 13 13 12 12 16 15 19 18 15 16 11 11 13 12 10 10 10 12 13 14 14 12 13 12 11 9 10 9 10 6 4 3 1 1 2 3 2 1
18 17 15 12 13 14 12 10 12 14 14 16 13 13 14 16 14 14 12 10 12 13 15 14 16 14 14 15 12 10 10 10 8 7 6 5 3 4 4 4 3 2 3
20 20 17 17 14 14 12 11 11 13 13 15 10 11 11 14 16 15 15 15 16 16 19 16 15 13 13 12 13 10 10 10 6 6 7 5 4 5 5 5 5 5 2
22 20 18 17 16 16 12 11 11 11 13 12 13 13 13 14 16 15 15 15 17 16 17 18 15 14 13 12 13 11 9 9 9 7 8 7 6 5 5 4 4 4 3
19 18 16 14 12 12 11 12 10 9 14 14 15 15 16 15 16 16 15 15 16 17 15 15 16 15 13 11 10 10 8 9 9 8 9 7 6 6 5 4 5 4 4
18 15 13 11 8 8 9 7 9 14 15 17 17 17 17 18 18 17 19 16 15 14 17 17 15 15 12 10 10 9 8 8 8 7 8 7 6 5 4 4 4 3 2
16 13 10 7 7 7 7 9 11 13 18 18 18 19 19 20 19 19 18 19 15 17 15 14 13 11 11 11 11 11 10 9 7 7 6 7 6 5 4 5 3 2 1
15 13 10 6 6 8 8 10 13 13 17 21 20 19 20 20 21 21 19 17 16 15 14 13 10 12 10 8 12 11 10 9 8 7 7 6 6 8 6 3 2 1 0
15 14 11 9 8 9 10 11 13 14 17 20 22 21 21 20 21 20 18 17 16 13 11 13 13 12 7 18 18 12 9 8 8 7 5 5 6 5 4 3 3 3 1
14 14 13 12 12 10 9 14 15 15 19 21 20 20 21 21 18 18 18 16 12 12 12 13 14 12 10 18 18 16 7 7 6 6 6 4 3 2 2 2 4 4 5
14 14 13 14 14 14 13 12 14 16 18 20 19 19 21 21 18 18 15 13 11 10 10 13 12 11 10 18 17 15 7 7 6 6 4 4 3 1 3 3 1 2 2
11 12 13 13 15 14 14 16 17 17 18 20 19 18 18 19 17 17 13 11 12 11 12 11 11 10 9 16 15 11 7 7 5 5 4 3 3 3 1 2 2 3 5
11 12 14 15 15 13 15 17 17 19 18 17 17 15 15 16 16 15 12 11 12 12 10 11 10 7 8 14 13 9 5 6 4 4 3 5 2 4 7 4 1 4 4
13 12 15 14 13 12 18 18 17 18 15 16 15 14 14 14 13 13 11 11 11 11 11 11 7 6 6 9 13 10 5 3 3 3 1 2 6 7 8 4 1 5 4
13 13 14 13 12 13 17 15 16 11 12 12 13 13 12 10 10 13 10 11 11 11 9 9 7 4 5 9 11 9 8 6 4 3 1 2 7 8 9 7 12 13 8
10 9 10 12 11 11 11 15 9 9 12 13 12 12 11 10 8 10 10 8 8 7 7 6 5 4 4 4 9 9 8 7 4 2 3 6 7 9 7 11 13 7 3
8 7 9 11 10 9 10 11 9 10 12 12 11 8 10 9 8 6 5 6 6 6 6 6 5 3 3 2 2 2 3 4 3 3 2 4 5 7 7 4 5 3 2
6 7 8 7 8 7 9 8 7 10 12 10 9 9 7 7 6 5 4 5 4 4 5 2 4 4 2 3 6 4 2 1 2 3 3 3 2 3 4 4 3 3 3
5 6 7 7 6 6 6 6 5 7 11 10 7 6 6 6 6 7 7 13 12 12 13 12 7 1 6 8 4 4 3 2 4 5 2 2 1 3 3 4 6 5 5
Wind_Direction
237 246 251 244 228 209 207 199 194 193 182 180 176 182 185 163 146 166 173 167 170 160 152 143 144 143 147 150 142 122 124 104 126 109 90 73 75 78 79 79 84 80 70
265 254 254 249 234 214 208 197 199 192 187 185 185 181 162 143 126 130 108 138 149 147 146 149 150 148 134 133 153 145 134 102 156 112 106 145 116 82 71 63 82 82 90
334 308 281 263 244 221 207 203 197 192 193 184 154 100 94 80 83 100 88 68 106 116 129 135 142 140 138 154 155 159 135 145 63 108 123 154 153 122 36 40 49 86 91
338 335 336 329 320 250 215 205 199 196 195 177 167 167 176 171 176 130 124 113 99 94 97 94 104 104 110 123 128 120 110 133 129 94 45 56 96 130 152 109 264 175 127
328 323 318 318 313 303 229 210 204 197 192 182 177 177 177 145 122 114 111 92 95 97 92 106 99 88 97 99 108 99 96 103 102 103 129 67 65 69 129 157 182 135 123
324 321 313 318 318 322 297 204 197 200 192 178 183 183 169 145 138 140 131 127 111 104 101 100 96 96 104 101 97 87 84 93 90 88 74 88 118 168 132 125 138 167 151
325 317 323 326 321 324 318 275 196 194 193 179 185 186 160 161 159 156 150 145 134 124 116 110 108 100 102 94 95 88 79 72 86 87 80 83 84 84 93 147 135 157 152
314 320 314 311 306 309 303 310 232 199 190 188 184 180 163 158 156 158 153 141 132 122 118 111 106 105 104 95 93 93 94 97 82 83 87 88 66 97 192 166 150 122 128
326 319 311 304 298 300 289 300 307 206 185 181 188 161 161 150 148 138 129 123 116 119 112 110 107 105 103 106 105 100 97 88 98 96 95 91 73 66 58 59 54 120 171
316 313 310 305 297 287 282 281 272 258 175 169 159 147 143 137 129 128 126 123 121 121 115 110 106 105 102 102 99 92 93 109 114 110 105 91 75 69 56 57 52 45 92
314 309 306 301 293 286 271 257 257 265 161 140 123 118 119 117 116 116 118 120 117 118 116 116 112 108 100 96 99 113 123 112 112 104 104 89 74 69 60 61 56 57 45
310 311 305 297 290 289 277 239 230 237 127 117 111 111 107 104 108 108 109 112 115 116 113 109 108 105 100 110 115 117 114 122 113 107 101 94 92 80 66 63 63 61 48
315 316 309 307 314 321 318 191 154 122 114 112 112 108 107 107 108 106 109 103 108 101 106 107 108 113 122 122 114 110 110 101 99 102 110 115 105 94 89 81 69 54 37
324 325 320 330 351 3 10 76 93 110 113 110 110 111 112 113 112 110 105 107 106 107 103 105 112 120 127 115 111 108 102 96 94 97 101 100 100 109 98 77 53 43 319
340 345 348 357 20 48 46 71 88 101 110 109 109 111 111 113 111 109 110 110 111 109 115 115 124 110 111 114 117 117 113 114 111 104 102 104 120 99 89 114 152 150 39
351 2 6 21 35 65 72 77 87 96 107 107 110 113 112 110 107 108 108 106 107 111 126 122 111 105 108 124 121 116 117 120 121 119 108 91 79 84 81 35 18 130 75
4 13 24 34 36 45 78 92 92 98 100 105 106 107 108 104 101 103 106 107 116 118 117 109 104 105 115 124 120 116 114 115 104 106 109 118 111 110 91 67 75 44 1
11 23 33 39 45 50 60 76 88 96 99 98 101 103 103 104 107 105 100 102 100 104 101 95 99 110 118 119 120 112 97 93 87 92 112 125 120 146 148 154 176 196 322
19 34 38 45 52 58 67 74 77 83 90 89 92 97 104 104 105 102 107 108 107 103 100 101 102 103 108 121 120 112 105 105 113 116 127 134 88 357 21 194 274 295 285
31 38 42 47 53 59 71 72 76 77 76 83 86 90 97 99 100 107 110 110 104 103 101 93 82 91 111 119 121 110 107 112 119 99 77 138 144 339 323 114 116 284 302
36 42 51 51 47 65 73 66 71 69 77 77 80 86 91 98 101 103 103 106 105 100 94 92 84 89 93 107 105 108 99 131 127 116 90 11 333 340 334 28 268 283 122
34 41 54 48 45 62 77 75 72 73 82 90 91 90 92 97 99 103 103 103 105 106 106 106 89 53 59 97 108 109 120 114 120 119 93 353 333 350 341 348 321 329 10
41 44 63 64 52 63 84 88 80 89 89 84 81 85 87 86 90 104 106 102 103 109 112 108 108 85 48 37 106 111 99 97 99 99 15 357 2 352 347 332 329 13 341
45 43 61 64 62 54 72 84 90 94 90 88 85 81 81 78 72 76 90 113 111 115 119 124 135 121 83 82 63 73 65 71 90 56 18 2 2 350 335 342 334 313 279
57 55 66 70 64 69 71 77 86 100 93 89 86 82 79 87 87 71 85 83 62 111 126 103 130 131 157 213 179 167 139 162 188 80 32 13 355 345 339 340 308 289 271
82 75 76 81 68 68 72 72 71 101 111 106 104 114 118 111 109 108 101 94 108 119 127 138 137 266 171 145 106 70 62 40 73 52 51 313 306 316 313 310 306 303 306